DateTimeUTC,F1_A11,F1_S11,BsB_S11,BsG_S11,BsR_S11,BbsB_S11,BbsG_S11,BbsR_S11,BaB_A11,BaG_A11,BaR_A11,Tu_S11,T_S11,Uu_S11,U_S11,P_S11,T1_A11
2021-09-23T17:00:00Z,00040200,21000000,,,,,,,-000.16,-000.04,0000.03,18.5,25.5,00.6,00.4,0659.0,31.0
2021-09-23T17:01:00Z,00040200,21000000,,,,,,,-000.24,-000.24,0000.01,18.5,25.5,00.4,00.3,0659.0,31.0
2021-09-23T17:02:00Z,00040200,21000000,,,,,,,-000.07,-000.11,-000.18,18.5,25.5,00.3,00.2,0659.0,31.0
2021-09-23T17:03:00Z,00040200,61000000,,,,,,,0000.85,0000.43,0000.31,18.5,25.5,00.3,00.2,0659.0,31.0
2021-09-23T17:04:00Z,00040200,41000000,0001.17,0000.74,0000.76,0000.20,0000.34,-000.01,0000.32,0000.65,0000.41,18.5,25.2,00.6,00.4,0659.9,31.0
2021-09-23T17:05:00Z,00040200,01000000,0001.88,0000.94,0000.82,0000.30,0000.62,0000.31,0000.31,0000.33,0000.65,18.6,25.2,00.7,00.4,0660.0,31.0
2021-09-23T17:06:00Z,00040200,01000000,0001.57,0001.30,0000.84,0000.16,0000.28,0000.41,0000.62,0000.47,0000.21,18.7,25.2,00.8,00.5,0659.9,31.0
2021-09-23T17:07:00Z,00040200,01000000,0001.85,0001.08,0000.66,-000.00,0000.30,0000.19,0000.23,0000.28,0000.10,18.8,25.2,00.7,00.4,0659.9,31.0
2021-09-23T17:08:00Z,00040200,01000000,0001.69,0000.86,0000.53,-000.22,0000.01,0000.23,0000.18,0000.39,0000.54,18.9,25.2,00.6,00.4,0660.1,31.0
2021-09-23T17:09:00Z,00040200,01000000,0001.23,0000.84,0000.74,0000.57,0000.18,0000.21,0000.34,0000.38,0000.12,19.0,25.3,00.7,00.5,0660.0,31.0
2021-09-23T17:10:00Z,00040200,01000000,0001.34,0000.96,0000.57,-000.11,-000.24,0000.12,0000.32,0000.10,0000.36,19.0,25.3,00.7,00.5,0660.1,31.0
2021-09-23T17:11:00Z,00040200,01000000,0001.63,0001.22,0000.53,-000.21,0000.13,0000.12,0000.57,0000.14,0000.14,19.1,25.3,00.7,00.4,0660.1,31.1
2021-09-23T17:12:00Z,00040200,01000000,0001.61,0001.20,0000.52,0000.16,0000.16,0000.25,-000.08,0000.18,0000.00,19.0,25.3,00.7,00.5,0660.0,31.0
2021-09-23T17:13:00Z,00040200,01000000,0001.33,0000.81,0000.79,-000.13,-000.03,0000.42,0000.09,0000.01,-000.03,19.0,25.3,00.7,00.5,0660.0,31.0
2021-09-23T17:14:00Z,00040200,01000000,0001.51,0001.40,0000.76,0000.74,0000.32,0000.43,0000.22,0000.14,-000.09,18.9,25.3,00.7,00.5,0660.0,31.0
2021-09-23T17:15:00Z,00040200,01000000,0000.89,0000.94,0001.01,0000.66,0000.22,0000.14,0000.19,0000.35,-000.07,18.9,25.3,00.7,00.5,0659.9,31.0
2021-09-23T17:16:00Z,00040200,01000000,0001.43,0001.05,0001.04,0000.23,0000.05,0000.49,0000.05,-000.11,0000.69,18.8,25.3,00.7,00.5,0659.9,31.0
2021-09-23T17:17:00Z,00040200,01000000,0001.67,0000.81,0000.80,-000.25,0000.10,0000.22,0000.44,0000.34,0000.02,18.8,25.2,00.7,00.5,0659.8,31.0
2021-09-23T17:18:00Z,00040200,01000000,0002.10,0001.16,0000.30,0000.70,-000.07,0000.40,0000.10,0000.29,0000.07,18.7,25.2,00.7,00.4,0659.9,31.0
2021-09-23T17:19:00Z,00040200,01000000,0001.45,0000.93,0000.63,0000.24,0000.46,0000.19,0000.42,0000.61,0000.72,18.7,25.2,00.7,00.5,0659.9,31.0
2021-09-23T17:20:00Z,00040200,01000000,0001.78,0001.24,0000.76,0000.41,0000.08,0000.12,0000.64,0000.38,-000.01,18.8,25.2,00.7,00.5,0659.9,31.0
2021-09-23T17:21:00Z,00040200,01000000,0001.04,0001.06,0000.63,0000.44,0000.12,0000.35,0000.09,0000.21,0000.26,18.8,25.2,00.7,00.5,0659.9,31.0
2021-09-23T17:22:00Z,00040200,01000000,0001.75,0000.85,0000.82,-000.21,-000.04,0000.05,0000.33,0000.34,0000.55,18.9,25.2,00.8,00.5,0659.9,31.0
2021-09-23T17:23:00Z,00040200,01000000,0001.71,0000.83,0000.44,0000.17,0000.28,0000.34,0000.51,0000.49,0000.22,19.0,25.3,00.8,00.5,0659.9,31.1
2021-09-23T17:24:00Z,00040200,01000000,0000.97,0000.89,0000.93,0000.58,0000.37,-000.05,0000.14,0000.23,0000.28,19.1,25.3,00.7,00.5,0659.9,31.0
2021-09-23T17:25:00Z,00040200,01000000,0001.18,0001.20,0000.73,-000.77,0000.17,0000.30,0000.07,0000.29,0000.33,19.1,25.4,00.7,00.4,0659.9,31.1
2021-09-23T17:26:00Z,00040200,01000000,0000.84,0001.23,0000.91,-000.08,0000.18,0000.43,0000.56,-000.01,0000.08,19.2,25.4,00.7,00.5,0659.9,31.1
2021-09-23T17:27:00Z,00040200,01000000,0001.73,0000.90,0000.60,0000.61,0000.03,0000.32,-000.17,0000.12,-000.05,19.2,25.4,00.7,00.4,0659.9,31.1
2021-09-23T17:28:00Z,00040200,01000000,0001.48,0000.74,0000.37,0000.57,0000.34,0000.09,0000.07,-000.26,-000.07,19.1,25.4,00.7,00.5,0659.9,31.0
2021-09-23T17:29:00Z,00040200,01000000,0001.69,0001.00,0000.73,-000.20,0000.14,0000.40,0000.10,0000.46,0000.05,19.0,25.4,00.7,00.5,0659.9,31.0
2021-09-23T17:30:00Z,00040200,01000000,0001.62,0001.00,0000.60,-000.53,0000.39,0000.09,0000.22,0000.09,0000.08,19.0,25.3,00.7,00.4,0659.9,31.0
2021-09-23T17:31:00Z,00040200,01000000,0001.77,0000.89,0000.93,0000.19,0000.17,0000.47,0000.55,0000.07,0000.45,18.9,25.3,00.7,00.5,0659.9,31.0
2021-09-23T17:32:00Z,00040200,01000000,0001.49,0001.11,0000.80,-000.14,-000.04,0000.10,-000.14,0000.40,-000.24,18.9,25.3,00.8,00.5,0659.9,31.0
2021-09-23T17:33:00Z,00040200,01000000,0001.80,0001.04,0000.72,0001.28,0000.20,0000.08,0000.43,0000.19,0000.82,18.8,25.2,00.7,00.5,0659.9,31.0
2021-09-23T17:34:00Z,00040200,01000000,0000.73,0000.98,0000.94,-000.12,0000.35,0000.33,0000.64,0000.62,0000.55,18.8,25.2,00.8,00.5,0660.0,31.0
2021-09-23T17:35:00Z,00040200,01000000,0001.05,0001.25,0000.60,0000.47,0000.16,0000.16,0000.27,0000.33,-000.05,18.8,25.2,00.7,00.5,0660.0,31.0
2021-09-23T17:36:00Z,00040200,01000000,0001.84,0000.92,0000.68,-000.09,0000.04,0000.21,0000.44,0000.24,-000.06,18.9,25.3,00.8,00.5,0660.0,31.0
2021-09-23T17:37:00Z,00040200,01000000,0001.99,0001.30,0000.85,0000.20,-000.18,0000.37,0000.29,0000.31,0000.34,19.0,25.3,00.7,00.5,0660.0,31.0
2021-09-23T17:38:00Z,00040200,01000000,0002.00,0000.97,0000.77,0000.02,0000.25,0000.15,0000.11,-000.21,-000.01,19.0,25.3,00.7,00.5,0660.0,31.0
2021-09-23T17:39:00Z,00040200,01000000,0002.14,0001.05,0000.66,-000.06,0000.19,0000.31,0000.16,0000.40,0000.57,19.0,25.3,00.7,00.5,0660.0,31.0
2021-09-23T17:40:00Z,00040200,01000000,0001.44,0000.93,0000.92,0000.15,0000.17,0000.07,-000.18,0000.01,-000.32,19.0,25.3,00.8,00.5,0660.0,31.0
2021-09-23T17:41:00Z,00040200,01000000,0002.83,0001.15,0000.84,0000.04,0000.00,-000.03,0000.11,0000.15,-000.06,18.9,25.3,00.7,00.5,0660.0,31.0
2021-09-23T17:42:00Z,00040200,01000000,0000.82,0001.01,0000.67,-000.15,-000.07,-000.25,0000.06,0000.18,0000.32,18.9,25.3,00.8,00.5,0660.0,31.0
2021-09-23T17:43:00Z,00040200,01000000,0000.80,0001.17,0000.99,-000.11,-000.17,0000.44,0000.35,-000.06,0000.31,18.8,25.2,00.7,00.4,0660.0,31.0
2021-09-23T17:44:00Z,00040200,01000000,0001.82,0000.47,0000.67,0000.43,0000.36,0000.49,0000.06,0000.03,-000.12,18.7,25.2,00.7,00.5,0660.0,31.0
2021-09-23T17:45:00Z,00040200,01000000,0001.84,0000.90,0000.60,0000.03,0000.02,-000.20,0000.75,0000.34,0000.31,18.7,25.2,00.8,00.5,0660.0,31.0
2021-09-23T17:46:00Z,00040200,01000000,0001.59,0000.79,0000.64,-000.22,0000.09,0000.19,0000.03,0000.37,0000.16,18.7,25.2,00.7,00.5,0660.0,31.0
2021-09-23T17:47:00Z,00040200,01000000,0001.29,0000.88,0000.49,0000.20,0000.04,0000.31,0000.23,0000.11,0000.54,18.6,25.1,00.8,00.5,0659.9,31.0
2021-09-23T17:48:00Z,00040200,01000000,0001.26,0001.32,0000.76,0000.29,0000.25,0000.35,0000.15,0000.39,-000.10,18.6,25.1,00.7,00.5,0659.9,31.0
2021-09-23T17:49:00Z,00040200,01000000,0001.24,0001.17,0000.61,-000.46,0000.10,0000.31,0000.43,0000.46,0000.32,18.5,25.1,00.7,00.5,0660.0,31.0
2021-09-23T17:50:00Z,00040200,01000000,0001.98,0001.11,0000.86,-000.02,0000.31,0000.44,0000.19,0000.11,0000.42,18.6,25.1,00.7,00.5,0659.9,31.0
2021-09-23T17:51:00Z,00040200,01000000,0001.44,0000.90,0000.81,-000.03,0000.03,0000.20,0000.65,0000.79,0000.55,18.7,25.1,00.7,00.5,0659.9,31.0
2021-09-23T17:52:00Z,00040200,01000000,0002.47,0001.17,0000.68,0000.36,0000.14,0000.15,0000.43,0000.32,0000.15,18.7,25.1,00.8,00.5,0660.0,31.0
2021-09-23T17:53:00Z,00040200,01000000,0001.79,0001.07,0000.94,0000.51,0000.55,0000.23,0000.27,-000.07,0000.18,18.8,25.2,00.8,00.5,0660.0,31.0
2021-09-23T17:54:00Z,00040200,01000000,0002.35,0001.11,0000.96,0000.37,0000.26,0000.24,0000.33,0000.72,0000.53,18.9,25.2,00.8,00.5,0660.0,31.0
2021-09-23T17:55:00Z,00040200,01000000,0001.92,0001.10,0000.52,0000.32,0000.00,0000.09,0000.03,0000.06,-000.09,19.0,25.3,00.7,00.5,0660.0,31.0
2021-09-23T17:56:00Z,00040200,01000000,0001.57,0001.31,0000.96,0000.03,0000.04,0000.54,0000.12,0000.39,0000.12,19.1,25.3,00.7,00.5,0660.0,31.1
2021-09-23T17:57:00Z,00040200,41000000,,,,,,,0000.25,-000.04,-000.05,19.1,25.3,00.3,00.2,0659.9,31.0
2021-09-23T17:58:00Z,00040200,61000000,,,,,,,0000.00,-000.47,-000.49,18.8,25.4,00.4,00.3,0659.1,31.0
2021-09-23T17:59:00Z,00040200,21000000,,,,,,,-000.46,-000.25,0000.03,18.7,25.5,00.5,00.4,0659.1,31.0
